Content
SEND FEEDBACK

Daily
Averages
Monthly
Summary
United States of America

BARRINGTON, ILLINOIS


Home > North America > United States > Illinois
Elevation: 810 feet     Latitude: 42 10N     Longitude: 088 09W

WEATHER
 
SELECT A DAY
Number of Records: 196,755;   Date Range: 1/1/95 - 9/16/14
 
SHARE

PRINT THIS DATA

[ ← Previous Day ]
WEATHER ALMANAC - JULY 13, 2013
[ Next Day → ]
[ °C ]   °F
Weather ElementAverageHighLow
Temperature75.2 °F82.9 °F (12:51 pm)63 °F (5:51 am)
Dewpoint58.8 °F62.1 °F (10:51 pm)53.1 °F (12:51 pm)
Humidity59 %90 % (5:51 am)36 % (12:51 pm)
Barometer30.13 in30.15 in (6:51 am)30.10 in (1:51 am)
Wind Speed7.7 mph13.8 mph (12:51 pm)
Wind Gust27.6 mph (1:51 pm)
Weather ElementAverage
Visibility10 mi
Wind DirectionENE (75.7 °)

Weather ElementTotal
Precipitation---
Cooling Degree Days8 (Base 65)
Growing Degree Days23 (Base 50)
Averaged from 23 records on July 13, 2013
WEATHER CONDITIONS BREAKOUT
WIND DIRECTION BREAKOUT
WEATHER BY HOUR - JULY 13, 2013
[ °C ]   °F
Local TimeTemperatureDewpointHumidityBarometerVisibilityWind DirectionWind SpeedGust SpeedPrecipitationEventsConditions
1:51 AM66.0 °F59.0 °F78 %30.10 in10.0 miSE (140°)4.6 mphClear
2:51 AM64.9 °F59.0 °F81 %30.12 in10.0 miCalmClear
3:51 AM66.0 °F59.0 °F78 %30.12 in10.0 miCalmClear
4:51 AM64.0 °F60.1 °F87 %30.13 in10.0 miCalmPartly Cloudy
5:51 AM63.0 °F60.1 °F90 %30.12 in10.0 miCalmPartly Cloudy
6:51 AM69.1 °F61.0 °F75 %30.15 in10.0 miCalmPartly Cloudy
7:51 AM72.0 °F59.0 °F64 %30.15 in10.0 miSSE (160°)3.5 mphPartly Cloudy
8:51 AM75.9 °F59.0 °F56 %30.15 in10.0 miSE (130°)12.7 mphPartly Cloudy
9:51 AM78.1 °F57.0 °F48 %30.15 in10.0 miEast (100°)11.5 mphScattered Clouds
10:51 AM79.0 °F54.0 °F42 %30.14 in10.0 miESE (110°)10.4 mph16.1 mphScattered Clouds
11:51 AM82.0 °F55.0 °F39 %30.14 in10.0 miSSE (150°)6.9 mphScattered Clouds
12:51 PM82.9 °F53.1 °F36 %30.13 in10.0 miEast (80°)13.8 mph21.9 mphPartly Cloudy
1:51 PM82.9 °F55.0 °F38 %30.13 in10.0 miEast (90°)11.5 mph27.6 mphScattered Clouds
2:51 PM82.9 °F57.0 °F41 %30.12 in10.0 miEast (80°)11.5 mphScattered Clouds
3:51 PM82.0 °F59.0 °F45 %30.11 in10.0 miEast (80°)10.4 mphScattered Clouds
4:51 PM82.9 °F60.1 °F46 %30.10 in10.0 miEast (90°)13.8 mphPartly Cloudy
5:51 PM82.0 °F60.1 °F47 %30.10 in10.0 miEast (80°)12.7 mphPartly Cloudy
6:51 PM80.1 °F61.0 °F52 %30.11 in10.0 miENE (70°)11.5 mphPartly Cloudy
7:51 PM78.1 °F59.0 °F52 %30.11 in10.0 miENE (60°)10.4 mphPartly Cloudy
8:51 PM75.0 °F61.0 °F62 %30.13 in10.0 miENE (70°)8.1 mphPartly Cloudy
9:51 PM73.9 °F61.0 °F64 %30.15 in10.0 miENE (70°)8.1 mphClear
10:51 PM73.0 °F62.1 °F68 %30.15 in10.0 miEast (100°)9.2 mphClear
11:51 PM73.0 °F62.1 °F68 %30.14 in10.0 miEast (80°)5.8 mphClear
Hourly data recorded from KORD, located miles away from Barrington, Illinois







STORIES FROM OUR PARTNERS